Date,TemperatureHighF,TemperatureAvgF,TemperatureLowF,DewpointHighF,DewpointAvgF,DewpointLowF,HumidityHigh,HumidityAvg,HumidityLow,PressureMaxIn,PressureMinIn,WindSpeedMaxMPH,WindSpeedAvgMPH,GustSpeedMaxMPH,PrecipitationSumIn
2013-1-1,43,41,38,41,34,26,92,79,60,30.06,29.91,5,0,5,0.53
2013-1-2,44,42,39,42,37,34,93,84,76,30.09,29.88,10,2,10,0.00
2013-1-3,42,39,31,37,34,25,89,82,70,30.21,30.03,12,2,12,0.00
2013-1-4,42,32,27,26,22,18,80,67,53,30.27,30.15,18,4,18,0.00
2013-1-5,46,35,27,29,23,18,75,61,51,30.27,30.12,12,2,12,0.00
2013-1-6,47,39,35,38,31,27,81,73,66,30.12,30.00,14,2,14,0.00
2013-1-7,63,37,33,44,25,20,72,62,48,30.30,30.12,21,3,21,0.00
2013-1-8,57,38,23,44,29,18,87,71,49,30.36,30.24,10,2,10,0.00
2013-1-9,54,50,46,51,47,41,95,88,78,30.39,30.30,6,1,6,0.00
2013-1-10,65,53,42,55,47,41,98,82,56,30.42,30.30,10,2,10,0.00
2013-1-11,60,54,50,58,53,47,97,94,86,30.30,30.12,11,2,11,0.26
2013-1-12,72,63,57,64,59,54,98,88,68,30.15,30.09,12,2,12,0.00
2013-1-13,69,63,58,59,56,54,91,79,60,30.12,30.06,18,4,18,0.08
2013-1-14,62,57,46,60,56,45,98,95,90,30.15,30.03,13,2,13,0.95
2013-1-15,56,50,46,55,50,45,98,97,94,30.12,30.00,7,2,7,0.87
2013-1-16,57,53,48,56,52,47,98,98,96,30.00,29.91,5,1,5,0.29
2013-1-17,53,44,34,53,43,30,98,96,85,30.12,29.77,21,3,21,1.95
2013-1-18,50,36,28,30,24,20,87,65,37,30.39,30.12,20,4,20,0.00
2013-1-19,57,38,24,33,25,20,89,62,29,30.36,30.09,12,2,12,0.00
2013-1-20,59,42,28,35,26,21,85,57,35,30.09,30.00,13,2,13,0.00
2013-1-21,55,38,25,30,20,8,89,53,30,30.06,29.91,16,3,16,0.00
2013-1-22,35,27,21,8,-6,-20,43,26,11,30.12,29.94,20,5,20,0.00
2013-1-23,47,32,0,22,9,-15,68,39,17,30.21,30.00,9,2,9,0.00
2013-1-24,42,33,23,28,9,-15,74,41,10,30.30,29.91,23,5,23,0.00
2013-1-25,33,27,21,27,13,-1,82,57,36,30.33,29.97,15,2,15,0.00
2013-1-26,33,33,33,27,27,27,77,77,77,30.00,30.00,1,1,2,0.00
2013-1-27,33,33,33,27,27,27,77,77,77,30.00,30.00,1,1,2,0.00
2013-1-28,65,39,33,46,32,27,86,75,49,30.21,30.00,12,1,12,0.00
2013-1-29,72,54,37,58,46,34,95,76,45,30.21,30.00,13,3,13,0.00
2013-1-30,64,60,46,61,56,42,97,89,75,30.00,29.53,30,6,30,2.82
2013-1-31,46,36,28,42,21,15,84,56,39,29.97,29.56,23,4,23,0.00
2013-2-1,43,28,20,28,12,3,79,49,35,30.24,29.85,27,5,27,0.00
2013-2-2,43,30,19,31,16,5,88,57,31,30.24,29.94,13,2,13,0.00
2013-2-3,48,37,29,32,23,16,87,58,40,29.97,29.83,23,5,23,0.00
2013-2-4,55,37,25,28,19,13,60,48,32,30.03,29.91,14,2,14,0.00
2013-2-5,60,43,30,36,26,18,76,54,37,29.97,29.85,12,2,12,0.00
2013-2-6,61,44,30,33,26,19,86,53,27,30.12,29.97,10,2,10,0.00
2013-2-7,42,41,40,40,25,20,95,55,42,30.12,29.97,3,0,3,0.38
2013-2-8,52,43,35,44,35,24,98,76,45,30.09,29.88,24,4,24,0.38
2013-2-9,58,41,30,27,19,-11,69,48,6,30.24,30.06,16,4,18,0.00
2013-2-10,51,43,33,46,26,19,96,52,38,30.30,30.09,13,2,13,0.37
2013-2-11,59,52,44,54,45,29,96,79,50,30.09,29.97,13,2,13,0.04
2013-2-12,53,46,40,37,26,20,88,47,31,30.06,29.88,16,3,16,0.08
2013-2-13,56,44,36,45,36,26,96,76,48,29.91,29.62,15,4,15,0.21
2013-2-14,56,41,32,32,26,21,69,55,37,30.00,29.85,16,3,16,0.00
2013-2-15,62,40,25,35,27,19,86,62,32,30.03,29.88,13,2,13,0.00
2013-2-16,37,32,23,25,18,6,90,59,41,29.97,27.61,27,4,27,0.00
2013-2-17,37,27,21,12,6,-6,48,40,17,27.93,27.70,30,8,30,0.00
2013-2-18,53,36,18,26,16,5,74,45,31,28.02,27.88,15,2,15,0.00
2013-2-19,56,44,35,41,24,9,85,47,28,27.88,27.61,24,4,24,0.04
2013-2-20,48,37,30,12,-3,-15,40,21,8,30.06,27.76,17,5,17,0.00
2013-2-21,63,42,24,33,3,-11,76,28,5,30.15,30.00,9,2,9,0.20
2013-2-22,41,38,35,39,33,28,96,82,67,30.18,30.03,10,2,10,0.30
2013-2-23,55,46,38,49,43,36,97,90,80,30.03,29.83,3,1,5,0.16
2013-2-24,58,46,33,41,29,19,94,57,27,30.00,29.83,9,3,15,0.00
2013-2-25,48,37,30,29,23,17,79,56,40,30.09,29.97,5,2,10,0.00
2013-2-26,42,37,32,40,34,25,98,90,69,29.97,29.56,5,2,11,1.20
2013-2-27,59,44,32,37,31,24,98,61,36,29.77,29.65,7,4,13,0.00
2013-2-28,44,37,32,30,22,18,73,56,44,29.85,29.71,11,5,18,0.00
2013-3-1,42,35,32,27,24,21,77,65,52,29.88,29.83,10,4,18,0.00
2013-3-2,40,34,28,30,23,14,89,65,46,29.88,29.80,11,5,18,0.00
2013-3-3,35,28,23,15,12,9,61,51,42,29.94,29.85,14,6,25,0.00
2013-3-4,55,37,25,21,12,-10,55,39,7,30.06,29.91,12,4,19,0.00
2013-3-5,54,44,35,46,34,20,95,69,49,30.00,29.65,9,2,18,0.71
2013-3-6,36,30,26,26,22,17,86,71,54,30.09,29.65,12,7,29,0.00
2013-3-7,47,34,28,27,22,20,79,64,45,30.21,30.06,11,6,23,0.00
2013-3-8,52,37,28,26,21,16,76,54,35,30.24,30.15,11,5,18,0.00
2013-3-9,63,44,24,33,23,14,76,47,26,30.27,30.18,7,2,12,0.00
2013-3-10,65,55,38,36,30,22,59,39,33,30.21,30.12,10,3,13,0.00
2013-3-11,58,52,49,52,45,30,94,79,41,30.12,29.83,9,4,13,0.62
2013-3-12,54,47,38,52,37,25,95,70,40,30.00,29.77,10,4,17,0.29
2013-3-13,49,39,29,29,22,12,79,51,35,30.12,29.97,13,5,21,0.00
2013-3-14,49,34,25,17,10,-12,51,38,8,30.21,30.09,11,5,20,0.00
2013-3-15,70,48,27,38,25,10,60,42,22,30.12,29.91,9,2,18,0.00
2013-3-16,78,64,44,45,39,32,71,41,26,29.94,29.80,9,4,18,0.00
2013-3-17,74,60,48,46,42,37,79,53,33,30.00,29.88,8,3,14,0.00
2013-3-18,49,43,38,44,39,34,97,86,74,30.03,29.83,9,4,9,0.41
2013-3-19,58,46,38,43,23,-12,98,51,6,30.03,29.85,7,2,7,0.00
2013-3-20,57,43,32,30,-6,-14,88,15,6,30.03,29.80,0,0,0,0.00
2013-3-21,39,30,22,24,12,6,75,48,33,29.88,29.77,0,0,0,0.00
2013-3-22,50,37,24,22,13,-4,48,38,19,29.97,29.88,0,0,0,0.00
2013-3-23,62,45,36,42,30,16,83,58,40,29.97,29.85,0,0,0,0.05
2013-3-24,46,42,38,41,38,36,96,85,68,29.88,29.53,0,0,0,0.66
2013-3-25,40,36,30,37,21,15,94,57,43,29.85,29.53,0,0,0,0.00
2013-3-26,40,32,28,24,21,19,77,64,49,30.12,29.83,0,0,0,0.00
2013-3-27,47,36,30,25,21,16,82,54,40,30.18,30.09,0,0,0,0.00
2013-3-28,55,39,27,26,18,14,61,44,26,30.21,27.93,6,0,9,0.00
2013-3-29,61,41,25,34,24,13,76,52,28,28.02,27.97,8,2,16,0.00
2013-3-30,64,50,40,46,38,34,88,64,42,27.97,27.82,6,2,10,0.12
2013-3-31,68,55,48,53,47,36,91,75,46,29.88,27.64,6,2,10,0.21
2013-4-1,66,54,38,51,40,30,93,63,37,29.97,29.88,10,4,22,0.04
2013-4-2,59,48,36,30,24,15,56,40,22,30.12,29.97,7,3,20,0.00
2013-4-3,61,50,38,27,20,10,36,30,19,30.21,30.09,6,3,12,0.00
2013-4-4,49,40,36,34,26,17,85,61,31,30.21,29.91,5,1,11,0.62
2013-4-5,59,47,38,42,36,30,89,68,41,30.06,29.88,9,4,16,0.00
2013-4-6,67,52,34,40,33,28,79,52,33,30.18,30.06,7,3,13,0.00
2013-4-7,70,58,46,43,35,27,52,42,36,30.18,30.09,9,3,13,0.00
2013-4-8,75,60,42,51,43,36,84,56,39,30.12,30.06,11,3,18,0.00
2013-4-9,80,66,48,55,49,42,83,57,40,30.21,30.12,7,2,12,0.00
2013-4-10,84,69,50,57,51,45,84,55,36,30.15,30.00,8,3,14,0.00
2013-4-11,77,68,60,63,53,48,87,60,42,30.00,29.77,13,3,22,0.50
2013-4-12,72,64,54,63,50,32,92,65,38,29.88,29.71,9,4,18,0.79
2013-4-13,71,59,48,40,34,30,54,40,24,30.06,29.88,9,4,16,0.00
2013-4-14,70,55,39,44,37,30,75,52,34,30.09,29.97,7,2,16,0.00
2013-4-15,67,58,52,56,51,43,91,79,64,30.18,29.97,5,2,10,0.12
2013-4-16,77,66,58,59,55,52,90,69,47,30.27,30.18,7,2,12,0.00
2013-4-17,76,64,56,62,57,52,90,79,56,30.27,30.15,5,1,8,0.29
2013-4-18,75,66,57,60,57,53,93,73,48,30.15,29.97,8,3,14,0.00
2013-4-19,68,61,45,62,56,32,91,83,62,29.97,29.80,10,6,18,0.50
2013-4-20,60,47,37,34,28,23,64,49,34,30.24,29.94,10,5,21,0.00
2013-4-21,62,48,32,35,30,25,79,53,35,30.36,30.24,7,2,15,0.00
2013-4-22,65,51,38,40,33,28,76,51,36,30.33,30.15,6,2,13,0.00
2013-4-23,72,53,33,44,36,26,76,53,35,30.24,30.09,6,2,12,0.00
2013-4-24,72,59,0,54,47,39,82,64,46,30.12,30.00,11,3,19,0.00
2013-4-25,68,54,42,45,27,-12,76,45,4,30.27,30.09,9,4,10,0.00
2013-4-26,67,54,37,38,32,23,64,43,33,30.36,30.27,7,2,12,0.00
2013-4-27,59,53,51,50,44,33,91,73,39,30.33,30.21,3,1,5,0.83
2013-4-28,54,51,48,52,49,44,96,92,89,30.21,30.00,5,1,9,1.82
2013-4-29,73,60,51,59,54,50,97,79,48,30.06,29.94,6,2,10,0.00
2013-4-30,74,61,50,60,53,47,95,77,49,30.15,30.00,7,2,13,0.00
2013-5-1,65,60,57,55,51,49,83,73,60,30.24,30.15,6,2,12,0.00
2013-5-2,65,58,54,56,53,50,91,83,72,30.24,30.21,6,2,12,0.00
2013-5-3,61,57,53,53,50,44,92,79,60,30.21,30.06,7,3,18,0.00
2013-5-4,56,51,48,48,44,37,91,79,65,30.06,29.94,10,4,20,0.42
2013-5-5,54,50,47,52,48,45,97,91,84,29.97,29.83,9,4,22,2.48
2013-5-6,66,57,45,53,47,40,96,73,45,29.88,29.80,8,3,16,0.00
2013-5-7,66,51,40,52,45,37,92,80,46,29.94,29.85,7,1,9,0.21
2013-5-8,71,57,48,57,52,46,96,84,56,30.06,29.91,6,1,12,0.05
2013-5-9,76,60,49,63,54,47,97,81,44,30.12,30.03,7,1,15,0.20
2013-5-10,78,64,51,63,54,49,96,73,46,30.12,30.00,12,2,18,0.00
2013-5-11,74,64,56,61,57,52,93,78,58,30.00,29.85,6,1,10,0.58
2013-5-12,64,56,45,54,40,27,87,58,36,30.06,29.91,11,4,19,0.00
2013-5-13,64,52,41,35,30,26,61,44,31,30.15,30.06,9,4,17,0.00
2013-5-14,73,55,35,46,37,26,78,54,35,30.21,30.09,6,2,12,0.00
2013-5-15,87,68,50,57,50,44,84,56,33,30.12,30.00,7,2,12,0.00
2013-5-16,78,66,53,58,52,48,85,63,42,30.09,30.00,4,1,8,0.00
2013-5-17,80,66,52,62,54,49,91,68,42,30.12,30.06,6,2,10,0.00
2013-5-18,68,64,60,63,60,54,94,86,69,30.12,30.09,0,0,0,1.12
2013-5-19,76,67,63,67,63,61,96,88,70,30.12,30.06,2,0,2,0.34
2013-5-20,82,69,61,68,64,60,97,85,58,30.12,30.06,5,1,10,0.00
2013-5-21,85,70,59,70,61,58,97,78,46,30.09,30.00,7,1,7,0.00
2013-5-22,80,68,60,72,63,57,95,84,61,30.06,29.91,8,2,9,0.87
2013-5-23,81,69,62,66,59,50,96,74,43,30.00,29.88,10,2,20,0.00
2013-5-24,67,60,52,52,44,33,78,56,38,30.21,29.94,13,6,24,0.00
2013-5-25,75,59,45,42,35,29,63,43,21,30.27,30.18,9,4,17,0.00
2013-5-26,74,60,51,52,44,35,80,57,37,30.24,30.15,7,2,12,0.04
2013-5-27,79,64,48,56,50,44,86,63,42,30.24,30.15,5,2,10,0.00
2013-5-28,81,69,56,62,56,52,89,65,42,30.24,30.18,6,2,13,0.00
2013-5-29,82,70,59,63,58,55,90,67,44,30.24,30.18,6,2,11,0.00
2013-5-30,81,69,0,65,58,54,92,70,48,30.27,30.18,7,2,10,0.00
2013-5-31,82,72,62,63,59,55,91,64,43,30.24,30.15,7,2,13,0.00
2013-6-1,81,72,0,64,60,56,85,66,47,30.15,30.06,7,2,15,0.00
2013-6-2,77,67,64,71,64,62,96,90,78,30.09,29.97,4,1,9,2.37
2013-6-3,80,69,0,68,63,57,97,80,50,30.03,27.76,6,2,11,2.37
2013-6-4,80,70,58,66,61,56,94,75,52,30.12,30.00,6,2,13,0.00
2013-6-5,78,70,65,66,64,60,93,80,65,30.12,30.00,6,2,10,0.20
2013-6-6,76,70,65,68,65,63,95,86,74,30.03,29.85,6,1,10,0.05
2013-6-7,81,69,63,69,64,60,96,87,60,29.88,29.77,6,2,15,2.94
2013-6-8,81,69,61,68,64,60,96,84,54,30.12,29.88,5,1,9,0.17
2013-6-9,81,69,62,72,66,61,96,90,71,30.18,30.09,6,2,13,0.62
2013-6-10,77,70,64,68,65,60,95,85,63,30.09,29.94,8,2,15,1.00
2013-6-11,83,72,63,67,62,59,96,74,47,30.09,30.00,8,2,14,0.04
2013-6-12,90,75,61,75,66,59,93,76,47,30.09,30.00,6,1,16,0.00
2013-6-13,91,75,67,67,63,56,92,70,35,30.00,29.83,9,3,21,0.00
2013-6-14,78,69,58,62,54,49,82,59,41,30.09,29.88,12,3,17,0.00
2013-6-15,83,67,52,59,54,48,89,66,42,30.18,30.09,4,1,8,0.00
2013-6-16,84,71,58,64,60,55,91,69,47,30.18,30.06,5,1,9,0.00
2013-6-17,80,73,67,69,66,63,93,80,65,30.09,30.00,6,1,10,0.62
2013-6-18,81,70,65,72,65,59,95,85,68,30.00,29.88,7,1,14,0.00
2013-6-19,79,70,60,66,62,58,94,78,61,30.15,29.97,4,1,9,0.00
2013-6-20,80,70,62,67,62,59,94,79,57,30.24,30.15,5,1,10,0.00
2013-6-21,82,70,61,66,61,57,95,75,46,30.30,30.21,5,1,11,0.00
2013-6-22,84,70,58,64,58,56,93,70,42,30.27,30.15,4,1,8,0.00
2013-6-23,83,70,59,69,63,56,92,77,54,30.24,30.15,6,1,9,0.00
2013-6-24,84,73,63,72,66,62,95,80,57,30.24,30.12,5,1,10,0.05
2013-6-25,84,72,65,71,66,63,95,83,58,30.21,30.09,5,1,8,0.03
2013-6-26,86,72,63,72,67,62,96,86,58,30.12,30.00,5,1,12,0.34
2013-6-27,86,73,65,74,68,64,96,87,63,30.03,29.85,6,1,10,0.41
2013-6-28,87,75,66,72,67,61,96,79,45,29.88,29.74,6,1,12,0.00
2013-6-29,84,73,63,67,61,57,96,70,43,29.80,29.74,4,1,9,0.05
2013-6-30,84,71,60,66,62,57,93,74,46,29.88,29.77,6,1,12,0.00
2013-7-1,82,71,65,68,65,63,94,82,61,30.00,29.85,7,2,15,1.28
2013-7-2,80,71,65,70,66,63,96,85,68,30.18,30.00,7,2,10,0.42
2013-7-3,77,69,62,73,66,61,97,92,86,30.27,30.15,9,2,13,2.78
2013-7-4,76,67,62,72,66,61,97,95,82,30.24,30.18,6,1,13,1.95
2013-7-5,83,72,67,71,67,64,96,86,58,30.27,30.21,7,2,14,0.25
2013-7-6,82,72,67,71,68,65,96,87,61,30.24,30.15,9,2,20,1.24
2013-7-7,82,74,68,72,69,66,96,85,68,30.21,30.12,6,2,11,0.21
2013-7-8,87,74,68,71,68,63,95,81,50,30.24,30.15,5,1,9,0.70
2013-7-9,87,75,67,72,68,63,96,82,50,30.21,30.12,6,1,10,0.21
2013-7-10,86,72,65,75,68,64,96,87,64,30.18,30.03,5,1,10,1.04
2013-7-11,79,72,67,72,68,66,97,89,70,30.03,29.94,5,0,6,0.00
2013-7-12,83,71,66,71,66,62,96,85,63,30.06,29.94,5,1,12,0.00
2013-7-13,76,69,63,68,64,60,94,85,73,30.15,30.06,4,1,9,0.00
2013-7-14,74,70,66,71,68,64,96,92,87,30.30,30.12,6,2,15,1.29
2013-7-15,84,74,68,72,68,65,96,83,56,30.36,30.30,6,1,9,0.00
2013-7-16,89,75,65,73,68,63,96,79,51,30.36,30.27,5,1,10,0.00
2013-7-17,88,74,66,75,68,63,95,85,59,30.33,30.21,4,1,12,0.12
2013-7-18,87,75,67,76,69,66,96,82,58,30.27,30.12,5,1,9,0.00
2013-7-19,89,76,67,74,69,65,96,80,51,30.18,30.06,6,1,10,0.00
2013-7-20,88,74,68,74,69,67,95,84,60,30.09,30.00,5,1,11,0.00
2013-7-21,86,72,68,74,68,66,95,87,63,30.09,30.00,4,1,9,0.16
2013-7-22,82,72,67,74,69,65,96,90,66,30.06,29.91,5,1,9,0.54
2013-7-23,86,74,67,70,67,64,95,80,52,29.97,29.88,7,2,17,0.05
2013-7-24,87,75,65,71,66,60,96,76,46,29.94,29.88,6,2,14,0.00
2013-7-25,87,73,65,69,64,58,94,76,40,30.09,29.94,5,1,10,0.00
2013-7-26,82,71,61,69,64,59,94,80,61,30.15,30.06,5,1,10,0.08
2013-7-27,81,72,66,72,67,64,95,85,62,30.09,29.94,4,1,9,1.33
2013-7-28,85,72,64,69,65,61,95,79,54,30.09,29.97,5,1,10,0.00
2013-7-29,84,70,60,65,59,55,94,72,43,30.24,30.06,4,1,9,0.00
2013-7-30,82,70,58,68,62,55,91,77,58,30.24,30.18,4,1,7,0.00
2013-7-31,77,70,67,70,67,64,95,89,77,30.21,30.03,4,0,6,0.20
2013-8-1,82,73,67,72,67,63,95,81,57,30.03,29.97,6,2,12,0.13
2013-8-2,84,73,63,70,65,61,94,78,56,30.09,30.00,4,1,9,0.00
2013-8-3,84,73,65,70,65,63,95,78,53,30.09,30.03,5,1,10,0.00
2013-8-4,81,72,64,70,63,58,94,75,51,30.09,30.03,8,2,16,0.00
2013-8-5,83,71,61,68,64,59,93,78,59,30.12,30.03,6,1,12,0.00
2013-8-6,84,74,69,70,67,63,93,82,52,30.12,30.00,5,1,8,0.00
2013-8-7,74,71,70,71,68,67,95,92,89,30.12,30.06,4,0,8,1.41
2013-8-8,82,72,67,75,70,66,97,91,75,30.12,30.06,4,1,8,0.21
2013-8-9,86,74,68,75,70,67,96,88,67,30.15,30.09,4,1,7,0.04
2013-8-10,85,72,67,76,69,66,97,91,70,30.18,30.12,5,1,11,0.33
2013-8-11,84,72,67,76,69,66,97,92,71,30.21,30.12,4,0,7,0.50
2013-8-12,86,72,66,76,68,65,97,90,66,30.15,30.03,5,1,7,0.33
2013-8-13,84,72,67,76,69,65,97,89,69,30.06,29.91,5,1,13,0.08
2013-8-14,79,69,65,66,62,56,94,78,51,30.12,29.97,7,2,13,0.00
2013-8-15,69,64,58,61,57,54,93,80,65,30.18,30.09,4,1,8,0.00
2013-8-16,74,64,56,60,57,54,95,81,61,30.18,30.12,5,1,10,0.00
2013-8-17,69,64,59,62,58,54,95,84,70,30.21,30.15,4,1,7,0.17
2013-8-18,79,68,62,70,64,61,96,89,71,30.24,30.15,5,1,9,0.17
2013-8-19,76,68,64,68,66,63,97,91,75,30.24,30.12,3,0,7,1.07
2013-8-20,81,70,62,71,66,61,97,89,68,30.24,30.15,5,1,8,0.00
2013-8-21,76,70,65,70,67,64,96,90,79,30.27,30.18,3,0,7,0.04
2013-8-22,86,73,66,72,67,64,96,83,55,30.21,30.09,5,1,9,0.00
2013-8-23,84,72,62,72,65,61,97,81,51,30.12,30.03,7,2,16,0.00
2013-8-24,79,69,59,66,61,55,94,76,48,30.33,30.12,5,2,13,0.00
2013-8-25,79,65,52,63,56,51,94,76,49,30.39,30.30,5,1,9,0.00
2013-8-26,81,66,55,64,59,53,95,79,53,30.36,30.18,6,1,10,0.00
2013-8-27,84,70,57,69,63,56,95,80,58,30.21,30.09,7,2,15,0.00
2013-8-28,86,74,65,72,67,63,94,79,55,30.12,30.00,6,2,15,0.00
2013-8-29,87,78,70,72,68,66,89,74,52,30.06,29.97,7,3,15,0.00
2013-8-30,82,73,69,72,69,67,94,86,69,30.12,30.00,5,1,10,0.17
2013-8-31,87,74,68,73,68,64,95,84,59,30.03,29.94,6,1,12,0.00
2013-9-1,86,72,66,74,68,64,96,88,63,29.97,29.88,6,1,13,0.67
2013-9-2,86,72,66,72,68,65,97,86,64,30.00,29.88,5,1,9,0.00
2013-9-3,83,71,63,68,64,61,96,79,50,30.06,29.91,8,2,25,0.12
2013-9-4,85,70,59,69,63,58,95,80,51,30.15,30.06,4,1,7,0.00
2013-9-5,85,70,59,67,60,56,95,75,41,30.18,30.12,6,1,10,0.00
2013-9-6,80,67,56,64,59,54,94,77,52,30.24,30.12,5,1,9,0.00
2013-9-7,83,68,58,66,61,57,96,81,53,30.18,30.06,5,1,8,0.00
2013-9-8,80,68,59,71,63,57,95,83,59,30.06,30.00,5,1,9,0.00
2013-9-9,85,72,62,71,65,60,96,81,54,30.18,30.06,5,1,10,0.00
2013-9-10,86,71,60,71,64,59,96,80,47,30.27,30.18,5,1,10,0.00
2013-9-11,84,71,63,74,66,60,96,86,62,30.27,30.15,5,1,8,0.04
2013-9-12,84,72,64,72,66,62,97,84,59,30.15,29.94,8,2,19,0.04
2013-9-13,78,68,57,64,57,47,93,71,43,29.97,29.88,8,3,19,0.00
2013-9-14,75,62,50,54,50,46,89,68,44,30.12,29.97,5,2,10,0.00
2013-9-15,77,63,51,62,56,48,93,79,55,30.21,30.12,6,1,10,0.00
2013-9-16,81,66,57,67,58,54,96,78,45,30.18,30.12,6,1,10,0.00
2013-9-17,71,64,60,62,55,51,87,73,56,30.30,30.18,6,2,10,0.00
2013-9-18,68,62,55,59,56,51,92,81,67,30.27,30.18,4,1,9,0.00
2013-9-19,80,68,61,66,62,58,94,83,59,30.21,30.12,4,1,8,0.00
2013-9-20,84,70,61,69,63,59,97,80,48,30.12,29.97,6,1,9,0.00
2013-9-21,69,64,61,66,62,60,96,92,88,29.97,29.77,6,1,10,1.29
2013-9-22,74,63,56,60,55,52,94,75,48,29.94,29.80,7,3,14,0.00
2013-9-23,75,63,54,60,56,52,95,79,54,30.09,29.94,6,1,10,0.00
2013-9-24,75,64,54,62,58,53,95,82,58,30.09,29.97,5,1,10,0.00
2013-9-25,64,61,59,61,60,58,96,93,91,29.97,29.88,4,0,6,0.16
2013-9-26,71,62,54,62,58,52,97,88,70,30.06,29.91,4,1,7,0.16
2013-9-27,75,60,48,62,54,47,97,83,59,30.18,30.06,5,1,9,0.00
2013-9-28,70,61,54,58,54,51,92,79,62,30.24,30.15,5,1,8,0.00
2013-9-29,73,61,53,57,54,50,93,78,56,30.18,30.06,5,1,8,0.00
2013-9-30,74,62,51,60,55,50,95,80,53,30.12,30.03,6,1,8,0.00
2013-10-1,77,63,53,65,57,52,96,82,53,30.18,30.09,5,1,9,0.00
2013-10-2,79,64,54,65,58,52,96,82,50,30.18,30.12,6,1,12,0.00
2013-10-3,81,66,58,66,59,56,96,82,52,30.18,30.12,6,1,12,0.00
2013-10-4,82,68,56,66,60,54,96,79,52,30.18,30.12,5,1,8,0.00
2013-10-5,83,67,58,70,61,56,97,81,51,30.18,30.09,5,1,8,0.00
2013-10-6,79,67,57,68,60,55,96,80,53,30.12,29.91,7,2,13,0.00
2013-10-7,67,62,56,63,56,48,95,81,60,30.03,29.85,8,3,20,1.29
2013-10-8,69,55,46,52,47,44,94,75,49,30.18,30.03,6,2,10,0.00
2013-10-9,74,56,43,51,46,41,93,73,45,30.21,30.12,4,1,6,0.00
2013-10-10,73,57,42,55,47,40,93,72,45,30.15,30.03,8,2,15,0.00
2013-10-11,75,61,49,56,51,46,91,71,44,30.06,29.97,9,3,18,0.00
2013-10-12,74,62,52,59,54,49,92,78,56,30.12,30.00,7,2,13,0.00
2013-10-13,70,63,58,63,60,56,94,88,73,30.24,30.12,4,1,9,0.00
2013-10-14,70,62,56,63,58,54,97,87,69,30.24,30.15,6,1,12,0.00
2013-10-15,68,60,55,59,56,53,95,86,71,30.18,30.06,4,1,7,0.00
2013-10-16,70,59,50,60,55,49,97,86,66,30.09,29.97,4,1,7,0.00
2013-10-17,70,63,57,65,60,53,96,90,81,30.00,29.88,6,1,14,0.04
2013-10-18,70,58,47,56,51,45,94,80,57,30.03,29.94,6,2,15,0.00
2013-10-19,65,57,48,56,51,44,95,82,54,29.97,29.85,5,1,8,0.00
2013-10-20,67,51,38,45,41,35,93,72,42,30.06,29.94,5,2,9,0.00
2013-10-21,68,51,37,52,44,34,92,77,52,30.12,30.00,7,1,12,0.00
2013-10-22,69,57,48,54,49,43,95,76,47,30.00,29.83,6,1,9,0.00
2013-10-23,58,47,38,45,35,23,91,64,40,30.00,29.77,11,4,21,0.00
2013-10-24,56,44,33,36,29,22,72,55,44,30.12,30.00,6,3,14,0.00
2013-10-25,49,39,29,31,24,19,69,55,41,30.27,30.12,9,4,18,0.00
2013-10-26,59,40,24,35,26,17,78,61,39,30.24,30.03,5,1,9,0.00
2013-10-27,68,55,42,46,40,33,79,59,45,30.12,30.00,6,2,13,0.00
2013-10-28,63,53,46,56,48,41,92,85,71,30.24,30.09,4,0,5,0.08
2013-10-29,70,56,46,57,49,44,96,79,47,30.30,30.21,5,1,9,0.00
2013-10-30,77,61,51,58,52,48,93,74,45,30.27,30.15,5,1,9,0.00
2013-10-31,66,62,58,60,54,50,87,76,60,30.18,29.88,7,2,13,0.00
2013-11-1,78,65,51,63,55,44,92,72,38,29.88,29.68,11,3,32,0.13
2013-11-2,64,51,43,45,38,31,82,63,44,29.97,29.80,10,3,20,0.00
2013-11-3,60,47,34,38,33,26,75,59,38,30.30,29.97,8,4,13,0.00
2013-11-4,57,43,30,36,28,24,82,59,38,30.39,30.27,6,2,12,0.00
2013-11-5,60,44,32,35,30,24,79,59,36,30.42,30.33,5,1,10,0.00
2013-11-6,68,55,45,51,45,34,87,70,49,30.36,30.12,6,2,11,0.00
2013-11-7,60,51,41,54,41,26,92,70,47,30.12,30.00,10,4,18,0.00
2013-11-8,54,42,30,27,22,14,56,45,26,30.24,30.12,9,4,22,0.00
2013-11-9,58,42,26,32,25,16,71,52,38,30.27,30.15,5,1,8,0.00
2013-11-10,67,51,36,38,29,22,60,45,29,30.21,30.12,8,3,17,0.00
2013-11-11,64,46,30,35,24,16,58,43,30,30.27,30.12,6,2,11,0.00
2013-11-12,54,37,24,34,22,8,66,54,40,30.36,30.03,12,5,20,0.00
2013-11-13,46,32,23,21,13,8,55,46,34,30.42,30.36,9,3,18,0.00
2013-11-14,61,37,19,30,16,9,67,46,19,30.36,30.24,5,2,9,0.00
2013-11-15,54,42,27,47,31,11,89,67,46,30.24,30.15,3,1,5,0.08
2013-11-16,61,54,49,54,50,46,93,86,73,30.21,30.12,6,1,10,0.04
2013-11-17,61,58,56,57,54,52,96,88,82,30.18,29.91,6,2,10,0.25
2013-11-18,65,57,46,59,41,26,97,57,37,30.03,29.88,12,5,21,0.00
2013-11-19,56,45,38,29,24,20,51,43,36,30.18,30.00,11,4,18,0.00
2013-11-20,52,42,31,28,23,18,59,47,37,30.36,30.18,6,2,12,0.00
2013-11-21,49,45,41,46,34,24,92,68,51,30.39,30.30,3,1,4,0.04
2013-11-22,68,58,48,59,53,46,95,86,72,30.33,30.12,5,1,7,0.09
2013-11-23,58,48,33,53,38,16,90,69,50,30.18,30.09,12,5,29,0.00
2013-11-24,35,28,20,16,9,4,52,46,36,30.36,30.15,10,5,19,0.00
2013-11-25,40,30,18,18,10,3,57,44,32,30.36,30.21,5,2,9,0.00
2013-11-26,46,38,31,43,33,17,93,82,52,30.21,29.65,8,2,16,2.23
2013-11-27,44,31,24,41,23,10,88,72,55,30.09,29.65,15,8,35,0.04
2013-11-28,51,31,19,27,16,9,68,54,32,30.36,30.09,9,3,17,0.00
2013-11-29,57,36,23,32,22,16,77,57,36,30.44,30.33,5,1,8,0.04
2013-11-30,49,34,23,27,19,15,76,57,40,30.48,30.24,5,1,8,0.00
2013-12-1,61,38,24,39,25,16,76,60,40,30.24,29.97,5,1,8,0.00
2013-12-2,57,43,28,39,32,22,81,66,50,29.97,29.80,3,1,5,0.00
2013-12-3,60,50,43,48,44,36,89,78,64,29.94,29.83,5,1,9,0.00
2013-12-4,67,57,50,56,52,48,93,85,66,30.06,29.91,7,1,12,0.00
2013-12-5,71,62,56,63,59,52,94,88,71,30.09,30.00,6,1,10,0.30
2013-12-6,70,66,54,64,61,52,96,85,74,30.09,29.97,11,4,21,0.95
2013-12-7,54,46,41,52,41,36,94,83,70,30.30,30.03,8,3,15,0.00
2013-12-8,44,38,35,39,35,33,96,90,83,30.30,30.12,5,2,9,0.29
2013-12-9,56,48,37,54,47,35,97,94,89,30.15,30.00,5,1,11,0.50
2013-12-10,48,41,29,46,33,16,97,75,54,30.24,29.88,11,4,22,0.20
2013-12-11,53,35,22,28,20,16,80,57,37,30.33,30.21,6,2,9,0.00
2013-12-12,42,33,24,19,12,-2,57,44,21,30.30,30.21,8,4,16,0.00
2013-12-13,53,35,19,27,16,7,63,47,34,30.27,30.15,5,1,7,0.00
2013-12-14,44,40,36,41,31,20,92,72,45,30.18,29.77,5,1,7,0.71
2013-12-15,44,37,30,43,29,21,95,74,59,30.06,29.74,10,5,20,0.00
2013-12-16,58,38,24,35,25,19,85,62,35,30.12,30.03,6,1,9,0.00
2013-12-17,63,43,26,38,26,18,81,55,28,30.09,29.91,9,4,21,0.00
2013-12-18,49,36,26,20,13,-10,52,40,9,30.24,30.03,11,4,18,0.00
2013-12-19,65,42,23,36,21,8,62,44,29,30.24,30.12,6,2,11,0.00
2013-12-20,67,53,44,45,31,21,70,44,29,30.15,30.09,7,2,11,0.00
2013-12-21,65,60,55,61,54,45,92,82,68,30.12,30.00,12,3,21,0.21
2013-12-22,66,60,57,62,58,55,96,91,79,30.06,29.94,12,3,23,2.32
2013-12-23,57,48,34,56,44,28,97,86,71,30.18,30.00,8,3,18,0.25
2013-12-24,36,31,22,29,19,9,79,62,49,30.30,30.15,9,5,16,0.00
2013-12-25,41,27,16,20,13,9,76,57,41,30.36,30.24,5,2,8,0.00
2013-12-26,51,32,21,27,18,10,72,55,38,30.27,30.15,8,2,12,0.00
2013-12-27,54,33,21,30,20,14,77,59,38,30.36,30.24,5,1,6,0.00
2013-12-28,45,34,22,35,24,14,86,70,54,30.33,30.03,0,0,0,0.25
2013-12-29,56,44,38,47,37,30,94,80,61,30.03,29.80,0,0,0,0.74
2013-12-30,47,43,36,37,34,29,79,71,62,30.06,27.82,4,0,4,0.00
2014-1-1,48,39,31,26,23,21,71,53,40,30.15,30.06,0,0,0,0.00
2014-1-2,47,35,20,43,29,12,88,78,57,30.06,29.65,0,0,0,0.00